Regional Weather Roundup
Issued by NWS

Home | Current Version | Previous Version | Text Only | Print | Product List | Glossary On
Versions: 1 2 3 4 5 6 7 8 9 10 11 12 13 14 15 16 17 18 19 20 21 22 23 24 25 26 27 28 29 30 31 32 33 34 35 36 37 38 39 40 41 42 43 44 45 46 47 48 49 50
762
ASUS44 KLIX 250801
RWRLA
LOUISIANA WEATHER ROUNDUP
NATIONAL WEATHER SERVICE NEW ORLEANS LA
200 AM CST TUE NOV 25 2014

NOTE: "FAIR" INDICATES FEW OR NO CLOUDS BELOW 12,000 FEET WITH NO
      SIGNIFICANT WEATHER AND/OR OBSTRUCTIONS TO VISIBILITY.
      SKY/WX - SKY CONDITION AND SIGNIFICANT WEATHER.
      TMP - AIR TEMPERATURE.    DP   - DEWPOINT TEMPERATURE.
      RH  - RELATIVE HUMIDITY.  PRES - PRESSURE.
      HX  - HEAT INDEX.         WCI  - WIND CHILL INDEX.

*  THESE STATIONS ARE NOT NWS OR FAA STATIONS AND ARE NOT UNDER
   NWS QUALITY CONTROL.

LAZ040-048-061>063-065-066-069-250900-
SOUTHEAST LOUISIANA

CITY           SKY/WX    TMP DP  RH WIND       PRES   REMARKS
N.O. AUDUBON     N/A     55  42  60 MISG        N/A
N.O. INTL ARPT CLOUDY    55  41  59 N13       30.09S
N.O. LAKEFRONT CLOUDY    57  42  57 N15       30.09F
N.O. DOWNTOWN* FAIR      55  37  50 N7        30.09S
SLIDELL        CLOUDY    52  39  61 N6        30.08F
BATON ROUGE    MOCLDY    49  38  65 CALM      30.12R
BOOTHVILLE     CLOUDY    58  45  62 N13G22    30.06S
BELLE CHASSE   CLOUDY    57  36  45 N7        30.08S
BOGALUSA*        N/A     48  42  77 CALM      30.12S
NEW ROADS*     PTSUNNY   48  42  79 CALM      30.13R
GONZALES*      NOT AVBL
HAMMOND*       CLOUDY    48  41  76 CALM      30.13R
HOUMA*         CLOUDY    52  41  66 N7        30.09F
PORT FOURCHON* NOT AVBL

$$

LAZ041-044-053-054-250900-
SOUTHWEST LOUISIANA

CITY           SKY/WX    TMP DP  RH WIND       PRES   REMARKS
LAKE CHARLES   PTCLDY    47  39  74 N5        30.15R
LAFAYETTE      MOCLDY    51  40  65 N5        30.13R
PATTERSON      PTCLDY    52  39  62 N6        30.13R
SALT POINT       N/A     57  41  55 N3        30.10S
NEW IBERIA     PTCLDY    49  41  74 N3        30.13R
CHENAULT AIRPK PTCLDY    45  39  81 N5        30.15S

$$

LAZ027-028-250900-
CENTRAL LOUISIANA

CITY           SKY/WX    TMP DP  RH WIND       PRES   REMARKS
FORT POLK      CLEAR     39  35  85 N3        30.15R
ALEXANDRIA INT CLEAR     39  37  92 CALM      30.14R
ALEXANDRIA     CLEAR     35  34  96 CALM      30.15R

$$

LAZ001-002-250900-
NORTHWEST LOUISIANA

CITY           SKY/WX    TMP DP  RH WIND       PRES   REMARKS
SHREVEPORT     CLEAR     38  32  79 W3        30.16R
BARKSDALE AFB  CLEAR     35  34  97 CALM      30.16R
DTN SHREVEPORT CLEAR     36  31  82 CALM      30.16R

$$

LAZ014-016-250900-
NORTHEAST LOUISIANA

CITY           SKY/WX    TMP DP  RH WIND       PRES   REMARKS
MONROE         CLEAR     36  35  96 CALM      30.16R
TALLULAH       CLEAR     32  30  92 CALM      30.14R FOG

$$




USA.gov is the U.S. government's official web portal to all federal, state and local government web resources and services.